Weather History for Modesto, CA

Change the Weather History Date:

Saturday, February 23, 2013

  Actual Average Record
Temperature  
Mean Temperature 52 °F -  
Max Temperature 59 °F 65 °F 74 °F (1985)
Min Temperature 44 °F 44 °F 31 °F (1960)
Degree Days  
Heating Degree Days 13 10  
Month to date heating degree days 364 287  
Since 1 July heating degree days 1846 1719  
Cooling Degree Days 0 0  
Month to date cooling degree days 0 0  
Year to date cooling degree days 0 0  
Growing Degree Days 1 (Base 50)    
Moisture  
Dew Point 35 °F    
Average Humidity 57    
Maximum Humidity 86    
Minimum Humidity 28    
Precipitation  
Precipitation 0.00 in 0.08 in 1.25 in (2010)
Month to date precipitation 0.32 1.97  
Year to date precipitation 1.59 4.58  
Since 1 July precipitation 7.47 8.94  
Snow  
Snow 0.00 in - - ()
Month to date snowfall 0.0  
Since 1 July snowfall 0.0  
Snow Depth -    
Sea Level Pressure  
Sea Level Pressure 30.17 in    
Wind  
Wind Speed 8 mph (NNW)    
Max Wind Speed 24 mph    
Max Gust Speed 31 mph    
Visibility 10 miles    
Events      
T = Trace of Precipitation, MM = Missing Value Source: NWS Daily Summary

Daily Weather History Graph

Daily Weather History Graph

Search for Another Location

Airport:

Trip Planner

Search our weather history database for the weather conditions in past years. The results will help you decide how hot, cold, wet, or windy it might be!

Date:

Astronomy

Feb. 23, 2013 Rise Set
Actual Time 6:42 AM PST 5:51 PM PST
Civil Twilight 6:16 AM PST 6:18 PM PST
Nautical Twilight 5:45 AM PST 6:48 PM PST
Astronomical Twilight 5:15 AM PST 7:19 PM PST
Moon 4:08 PM PST (2/23) 5:07 AM PST (2/23)
Length of Visible Light 12h 01m
Length of Day
11h 09m
Waxing Gibbous, 96% of the Moon is Illuminated
Feb 23
Waxing Gibbous
Feb 25
Full
Mar 4
Last Quarter
Mar 11
New
Mar 19
First Quarter

Hourly Weather History & Observations

Time (PST) Temp. Windchill Dew Point Humidity Pressure Visibility Wind Dir Wind Speed Gust Speed Precip Events Conditions
12:53 AM 45.0 °F 42.6 °F 39.0 °F 80% 30.21 in 8.0 mi ESE 4.6 mph - N/A   Mostly Cloudy
1:53 AM 46.0 °F 43.9 °F 39.9 °F 79% 30.20 in 8.0 mi ESE 4.6 mph - N/A   Overcast
2:53 AM 45.0 °F 43.5 °F 39.9 °F 82% 30.18 in 8.0 mi ESE 3.5 mph - N/A   Scattered Clouds
3:53 AM 48.0 °F - 41.0 °F 77% 30.18 in 9.0 mi Calm Calm - N/A   Overcast
4:53 AM 48.0 °F - 41.0 °F 77% 30.17 in 8.0 mi NNW 3.5 mph - N/A   Overcast
5:53 AM 48.0 °F - 41.0 °F 77% 30.17 in 9.0 mi NE 4.6 mph - N/A   Mostly Cloudy
6:53 AM 46.9 °F - 41.0 °F 80% 30.19 in 8.0 mi NNE 5.8 mph - N/A   Clear
7:53 AM 48.9 °F - 44.1 °F 83% 30.21 in 10.0 mi NNW 4.6 mph - N/A   Clear
8:53 AM 52.0 °F - 44.1 °F 74% 30.22 in 10.0 mi WNW 13.8 mph - N/A   Clear
9:53 AM 54.0 °F - 39.9 °F 59% 30.21 in 10.0 mi NW 15.0 mph - N/A   Clear
10:53 AM 55.0 °F - 36.0 °F 49% 30.21 in 10.0 mi NW 18.4 mph - N/A   Clear
11:53 AM 55.9 °F - 37.0 °F 49% 30.20 in 10.0 mi NW 15.0 mph 27.6 mph N/A   Clear
12:53 PM 57.9 °F - 41.0 °F 53% 30.17 in 10.0 mi NW 17.3 mph 26.5 mph N/A   Scattered Clouds
1:53 PM 57.0 °F - 35.1 °F 44% 30.15 in 10.0 mi NNW 17.3 mph 29.9 mph N/A   Partly Cloudy
2:53 PM 59.0 °F - 26.1 °F 28% 30.14 in 10.0 mi North 16.1 mph 26.5 mph N/A   Clear
3:53 PM 57.9 °F - 23.0 °F 26% 30.13 in 10.0 mi NW 19.6 mph 31.1 mph N/A   Clear
4:53 PM 57.0 °F - 27.0 °F 32% 30.12 in 10.0 mi NW 13.8 mph 26.5 mph N/A   Clear
5:53 PM 55.0 °F - 28.0 °F 35% 30.12 in 10.0 mi NNW 12.7 mph 21.9 mph N/A   Clear
6:53 PM 53.1 °F - 26.1 °F 35% 30.14 in 10.0 mi NW 10.4 mph - N/A   Clear
7:53 PM 52.0 °F - 26.1 °F 37% 30.14 in 10.0 mi NNW 13.8 mph - N/A   Clear
8:53 PM 50.0 °F - 26.1 °F 39% 30.14 in 10.0 mi NW 10.4 mph - N/A   Clear
9:53 PM 46.9 °F - 28.0 °F 48% 30.15 in 10.0 mi WNW 9.2 mph - N/A   Clear
10:53 PM 43.0 °F 37.7 °F 28.9 °F 58% 30.14 in 10.0 mi NW 9.2 mph - N/A   Clear
11:53 PM 42.1 °F 36.6 °F 28.9 °F 60% 30.15 in 10.0 mi NW 9.2 mph - N/A   Clear